SL-8 DEB, 2334

Orbit data source: Space-Track

SL-8 DEB, 2334 is space debris in LEO originally from a launch on Mon, 15 Mar 1965 UTC launched from the Tyuratam Missile And Space Complex (TTMTR). Debris objects in space refer to the collection of defunct objects orbiting the Earth. Examples of debris include non-operational satellites, rocket bodies, and fragments generated from explosions, collisions, or faulty payload assembly.

Loading next visibility...
Identifier
2334, 1965-020EH
Orbit
LEO
Country
Flag of CISCIS
Related business
Manufacturer
Unknown
Mission
Spacecraft
Bus & Motor
Unknown
Mass
Unknown
Launch date (UTC)
1965-03-15 (61 years ago)
Launch vehicle
Unknown
Launch site
Tyuratam Missile And Space Complex (TTMTR)
Object type
Payload
Rocket body
Debris
Shape & HBR
Unknown
Radar Cross Section
Small (<0.1 m²)

Expand to show TLE details & history
Last TLE update: 1 day ago

TLE from 1 day ago
0 SL-8 DEB
1 02334U 65020EH  25256.85374084  .00000234  00000-0  41587-3 0  9991
2 02334  55.6739  92.8755 0581642 295.3738  58.8070 13.11901428814672
Epoch: 2025-09-13T20:29Z
TLE epoch observation values (Epoch: 2025-09-13T20:29:23.208Z)
Latitude
-0.00002°
Longitude
152.44765°
Altitude
1,007.763 km
Speed
7.449 km/s
True Right ascension
06h 11m 30s
True Declination
0° 00' 00"
Sunlit
Object was in daylight at epoch
Visualization orbit readout
Latitude
Unknown
Longitude
Unknown
Altitude
Unknown
Speed
Unknown
Apparent Right ascension
Unknown
Apparent Declination
Unknown
Sunlit
N/A
Visualization observer readout
Local Sidereal Time
00:55:39
Azimuth
Unknown
Elevation
Unknown
Doppler factor
Unknown
Orbital elements
Apogee altitude
1,657.371 km
Perigee altitude
773.995 km
Semi-major axis
7,593.82 km
Eccentricity
0.05816
Inclination
55.6739°
RAAN
92.8755°
Arg. of periapsis
295.3738°
True anomaly
64.7207°
Mean anomaly
58.807°
Eccentric anomaly
61.74242°
Mean motion
3.27984 °/min
Orbital period
109.76 mins
BSTAR
0.00041587
Loading maneuver chart data...
Computing Atmospheric mass density...
Loading historical data...
Loading historical data...
Loading historical data...
Loading historical data...
Loading historical data...
Loading historical data...
Loading historical data...

Documentation

Showing up to 5 results
|